Regional Weather Roundup
Issued by NWS Newport/Morehead, NC

Current Version | Previous Version | Graphics & Text | Print | Product List | Glossary Off
Versions: 1 2 3 4 5 6 7 8 9 10 11 12 13 14 15 16 17 18 19 20 21 22 23 24 25 26 27 28 29 30 31 32 33 34 35 36 37 38 39 40 41 42 43 44 45 46 47
000 ASUS42 KMHX 181514 RWRMHX WEATHER ROUNDUP FOR EASTERN NORTH CAROLINA NATIONAL WEATHER SERVICE NEWPORT/MOREHEAD CITY NC 1100 AM EDT FRI AUG 18 2017 NOTE: "FAIR" INDICATES FEW OR NO CLOUDS BELOW 12,000 FEET WITH NO SIGNIFICANT WEATHER AND/OR OBSTRUCTIONS TO VISIBILITY NCZ015>017-031-032-045>047-102-103-181600- NORTH COAST CITY SKY/WX TMP DP RH WIND PRES REMARKS EDENTON MOSUNNY 87 80 78 CALM 29.95S HX 103 ELIZABETH CITY SUNNY 88 81 79 SW10 29.93F HX 106 KITTY HAWK SUNNY 87 77 72 CALM 29.94S MANTEO MOSUNNY 87 78 72 SW7 29.95S HX 100 $$ NCZ045>047-081-094-103-104-181600- CENTRAL COAST CITY SKY/WX TMP DP RH WIND PRES REMARKS FRISCO SUNNY 88 82 82 SW8 29.97S HX 108 $$ NCZ095-097-098-100-101-181600- SOUTHERN COAST CITY SKY/WX TMP DP RH WIND PRES REMARKS BEAUFORT CLOUDY 87 83 87 SW16 29.97S HX 108 CEDAR ISLAND NOT AVBL JACKSONVILLE MOSUNNY 90 81 74 SW7 29.95S HX 109 PINEY ISLAND SUNNY N/A N/A N/A SW10 29.96S WILMINGTON SUNNY 90 80 72 W7 29.96S HX 107 $$ NCZ011>013-027>030-043-044-078>080-089-090>093-098-181600- COASTAL PLAIN CITY SKY/WX TMP DP RH WIND PRES REMARKS AHOSKIE N/A 81 78 91 S5 29.94S CLINTON SUNNY 86 80 81 SW3 29.96S HX 101 ELIZABETHTOWN NOT AVBL GOLDSBORO NOT AVBL GREENVILLE SUNNY 88 79 74 SW5 29.96S HX 102 HAVELOCK MOSUNNY 91 79 67 SW8 29.96S HX 107 KENANSVILLE SUNNY 90 79 70 W6 29.96S HX 105 KINSTON SUNNY 90 77 66 S5 29.95F HX 102 NEW BERN SUNNY 90 80 72 SW7 29.96S HX 107 RICHLANDS SUNNY 90 80 72 S7 29.96S HX 107 ROCKY MOUNT SUNNY 85 79 82 SW6 29.94F WASHINGTON MOSUNNY 87 79 78 S6 29.95S HX 101 WHITEVILLE SUNNY 88 77 71 SW5 29.97S HX 100 $$ AMZ130-135-150-152-154-156-158-170-250-252-270-ANZ085-086-088-633-658-670-181600- MARINE OBSERVATIONS STATION/POSITION TIME TEMP WIND PRES WAVE SWELL AIR SEA DIR/SP/G HT/PER HT/PER (UTC) (F) (DEG/KT/KT) (MB) (FT/S) (FT/S) CHESAPEAKE LIGHT NOT AVBL 64 E VA BEACH 1450 79 78 180/ 10/ 12 1014.9 2/ 8 2/ 8 DUCK 1448 85 72 200/ 9/ 12 1013.6 2 E DUCK 1500 78 N/A 2/ 7 OREGON INLET 1442 84 83 190/ 12/ 14 1014.3 13E OREGON INLT 1448 80 N/A 3/ 8 2/ 8 HATTERAS CG 1448 85 83 210/ 9/ 13 1014.9 DIAMOND BUOY 1450 84 86 220/ 12/ 16 1014.9 2/ 8 2/ 8 CAPE LOOKOUT 1500 85 220/ 11/ 14 1014.7 BEAUFORT LAB 1448 85 81 200/ 13/ 14 1014.2 30 SE NEW RVR IN 1408 84 83 220/ 12/ 14 1015.1 30 SE NEW RVR IN 1443 84 N/A 3/ 6 27 SE WRIGHTSVLE 1408 84 83 210/ 12/ 16 1015.1 5 SE WRIGHTSVLE 1408 85 84 230/ 8/ 12 1014.6 225 S CAPE HAT 1450 84 84 230/ 10/ 10 1017.5 2/ 4 2/ 8 41 SE CHARLESTON 1500 84 85 230/ 12/ 14 1015.8 $$

USA.gov is the U.S. government's official web portal to all federal, state and local government web resources and services.